FENGYUN 1C DEB

Satellite information

Favourite Embed

Satellite Type and Status

DEBRISIN ORBIT

Key statistics

Satellite FENGYUN 1C DEB at a glance.

Uptime

9715

Days in orbit

Revolutions

≈ 14.4

Per day

Orbit

SSO

Sun Synchronous Orbit

Inclination

99.3

Latest

Satellite identification and parameters

Extended collection of information and parameters for FENGYUN 1C DEB.

Object identification

Identified? True

Debris? True

Object name: FENGYUN 1C DEB

International designator: 1999-025CEE

Object number (NORAD): 31731

Object ID (CCSDS): 31731

Country: PEOPLES REPUBLIC OF CHINA (PRC)

Current information (Y/N): Y

RCS size: SMALL

Orbital parameters

Period: 99.996 minutes

Inclination: 99.3084 deg

SMA: 7136.425 km

Apoapsis: 766.612 km

Periapsis: 749.968 km

RAAN: 17.9462 deg

Eccentricy: 0.00116613

Argument of periapsis: 144.9647 deg

Mean anomaly: 215.2308 deg

Mean motion: 14.40063792 rev/day

Mean motion (dot): 0.00005831 rev/day2

B* drag term: 0.0018623031 1/REarth

Two-line elements (TLE)

Creation date: Nov. 27, 2025, 1:14 p.m.

Reference frame: TEME

Reference center: EARTH

Epoch: Nov. 27, 2025, 2:07 a.m. UTC

TLE line 0: 0 FENGYUN 1C DEB

TLE line 1: 1 31731U 99025CEE 25331.08828504 .00005831 00000-0 18623-2 0 9998

TLE line 2: 2 31731 99.3084 17.9462 0011661 144.9647 215.2308 14.40063792956051

Live tracking on map

Real-time ground track for satellite FENGYUN 1C DEB.

In-orbit conjunctions

A list of the most updated potential collisions computed for object FENGYUN 1C DEB.

Target Orbit TCA Probability of collision Miss distance Type
CZ-6A DEB LEO 2025-01-10 01:25:21 0.0001133232 687.0 (m) DEBRIS
CZ-6A DEB LEO 2024-10-25 19:07:25 0.0006487219 191.0 (m) DEBRIS

Associated space launch

Chinese polar orbiting meteorological satellite

FENGYUN 1C DEB was lifted into orbit during the mission ‘Long March 4B | Feng Yun 1C’, on board a Long March 4B space rocket.

The launch took place on May 10, 1999, 1:33 a.m. from Launch Complex 7.

For more information about the launch, click the button.

Launch to space Long March 4B | Feng Yun 1C
Long March 4B | Feng Yun 1C

Agency: N/A

Status: Launch Successful

Launch date: May 10, 1999, 1:33 a.m. UTC

Rocket: Long March 4B

Launch pad: Launch Complex 7

Location: Taiyuan Satellite Launch Center, People's Republic of China

...

Latest news about this satellite

There are no fresh news available about this satellite. Check back as we update our databases every day.


Newsletter sign-up

Weekly statistics, charts and insights to help you stay on top of the space industry.